星链-37358(STARLINK-37358)

导读

STARLINK-37358(NORAD编号68699)是美国SpaceX公司星链(Starlink)卫星互联网星座中的一颗低轨卫星,属于Starlink星座组网卫星之一,随星链发射任务进入近地轨道。 星链项目旨在通过大规模低轨卫星部署,为全球提供高速低延迟互联网接入,尤其覆盖偏远无基础设施区域,同时兼顾商业与特殊场景通信需求。该卫星运行在约550公里高度近地轨道,跟随星座整体构型,参与全球网络覆盖,截至2026年星链已累计发射超万颗卫星,该星当前处于在轨运行状态。

Basic Information
目录编号:
68699
目录名称:
STARLINK-37358
国际标识:
2026-081A
轨道中心:
EARTH
卫星名称:
星链-37358
卫星全名:
星链-37358(STARLINK-37358)
卫星状态:
在轨 (已飞行143 天)
发射日期:
2026-04-14 UTC
国别 :
美国 (US)
星等 :
--
Orbit Information
数据来源 国际轨道数据
星历时间: 2026-09-04T02:14:12+0800
12小时前
查看轨道信息
半长轴: 6840.843km
偏心率: 0.0001104
轨道倾角: 53.160°
近地点辐角 121.678°
升交点赤经 284.316°
平近点角 238.433°
近地点: 461.95km
远地点: 463.462km
周期: 93.848分钟
每日圈数: 15.343992
Detailed Information
固有亮度:
5
最大亮度:
2.5
卫星平台:
Starlink V1.0
覆盖范围:
全球
运营商:
太空探索技术公司
运营商所在国:
美国
制造商(研发单位):
太空探索技术公司
制造商所在国:
美国
使用方式:
暂无
Satellite Introduction
Starlink 计划是 SpaceX 推出的全球卫星互联网项目,通过发射低轨道卫星,为全球尤其是偏远地区提供高速、低延迟的互联网服务。自 2019 年起,Starlink 已部署数千颗卫星,旨在缩小全球数字鸿沟,推动互联网普及。该项目还为军事、航空等行业提供通信支持,带来广泛经济效益。
2D Orbit Map
3D Orbit Map
Orbit Altitude Analysis Chart
Orbit Inclination Analysis Chart
Orbit Comprehensive Analysis Chart
View Comprehensive Chart
Conjunction Data List
Event ID Objects TCA Miss Dist (km) Collision Risk Probability Collision Risk Index (CRI) Action
CDM_260904-161106-635406-869921
2026-09-04T
16:11:28+0000
2.216 km
极远距离
1.973098E-6 低风险 0.41
CDM_260904-135605-019206-869921
2026-09-04T
13:56:00+0000
2.913 km
极远距离
1.182513E-6 低风险 0.36